Flag for United Kingdom Weather past 2 weeks in Bradford, England, United Kingdom

41 °F


Feels Like: 34 °F
Forecast: 39 / 44 °F
Wind: 13 mph from Northwest

Location: Leeds And Bradford

Current Time: Nov 25, 2015 at 12:52:02 AM

Latest Report: Nov 25, 2015 at 12:20 AM

Visibility: 10 mi

Pressure: 29.71 "Hg

Humidity: 93%

Dew point: 39 °F

Location of BradfordLocation

Historic Weather in Bradford — Graph


Bradford temperature yesterday

Maximum temperature yesterday: 46 °F (at 1:50 PM)
Minimum temperature yesterday: 39 °F (at 7:50 PM)
Average temperature yesterday: 43 °F

Past Weeks' High & Low Weather Summary

High61 °F (Nov 10, 9:50 AM)100% (Nov 14, 10:50 AM)30.18 "Hg (Nov 14, 10:50 AM)
Low28 °F (Nov 21, 9:20 PM)59% (Nov 12, 12:50 PM)29.15 "Hg (Nov 17, 4:50 PM)
Average45 °F87%29.77 "Hg
* Reported Nov 9 11:20 PM — Nov 24 11:20 PM, Bradford, Weather by CustomWeather, © 2015

Note: Actual official high and low records may vary slightly from our data, if they occured in-between our weather recording intervals... More about our weather records


Bradford weather history for previous 24 hours

Time TempWeatherWind HumidityBarometerVisibility
11:20 PM
Tue, Nov 24
41 °FClear.14 mph93%29.71 "Hg10 mi
10:50 PM41 °FClear.14 mph93%29.71 "Hg10 mi
10:20 PM41 °FClear.10 mph87%29.71 "Hg10 mi
9:50 PM39 °FClear.13 mph93%29.71 "Hg10 mi
9:20 PM41 °FPassing clouds.14 mph93%29.71 "HgN/A
8:50 PM41 °FClear.14 mph93%29.71 "Hg10 mi
8:20 PM39 °FPassing clouds.9 mph93%29.71 "HgN/A
7:50 PM39 °FPassing clouds.8 mph93%29.71 "HgN/A
7:20 PM41 °FPassing clouds.13 mph93%29.71 "HgN/A
6:50 PM41 °FPassing clouds.14 mph93%29.71 "HgN/A
6:20 PM41 °FPassing clouds.8 mph93%29.71 "HgN/A
5:50 PM41 °FSprinkles. Passing clouds.9 mph93%29.71 "HgN/A
5:20 PM41 °FPassing clouds.15 mph93%29.68 "HgN/A
4:50 PM43 °FPassing clouds.16 mph93%29.68 "HgN/A
4:20 PM43 °FPassing clouds.17 mph87%29.68 "HgN/A
3:50 PM45 °FScattered clouds.14 mph87%29.68 "HgN/A
3:20 PM45 °FScattered clouds.14 mph87%29.68 "HgN/A
2:50 PM45 °FSprinkles. Scattered clouds.16 mph87%29.68 "HgN/A
2:20 PM46 °FScattered clouds.13 mph87%29.68 "HgN/A
1:50 PM46 °FScattered clouds.15 mph87%29.68 "HgN/A
1:20 PM45 °FScattered clouds.16 mph87%29.68 "HgN/A
12:50 PM45 °FScattered clouds.15 mph93%29.68 "HgN/A
12:20 PM45 °FScattered clouds.14 mph93%29.71 "HgN/A
11:50 AM45 °FScattered clouds.14 mph93%29.71 "HgN/A
11:20 AM45 °FRain showers. Scattered clouds.14 mph93%29.71 "HgN/A
10:50 AM45 °FSleet. Scattered clouds.14 mph93%29.71 "HgN/A
10:20 AM45 °FSprinkles. Scattered clouds.13 mph93%29.74 "HgN/A
9:50 AM43 °FSprinkles. Scattered clouds.14 mph93%29.74 "HgN/A
9:20 AM43 °FSprinkles. Scattered clouds.10 mph93%29.74 "HgN/A
8:50 AM43 °FScattered clouds.8 mph93%29.77 "HgN/A
8:20 AM43 °FScattered clouds.9 mph93%29.77 "HgN/A
7:50 AM43 °FSprinkles. Scattered clouds.13 mph93%29.77 "HgN/A
6:50 AM43 °FPassing clouds.12 mph87%29.77 "HgN/A
6:20 AM43 °FPassing clouds.10 mph87%29.77 "HgN/A
5:50 AM43 °FPassing clouds.7 mph87%29.77 "HgN/A
5:20 AM43 °FPassing clouds.14 mph87%29.80 "HgN/A
4:50 AM43 °FPassing clouds.16 mph87%29.80 "HgN/A
4:20 AM43 °FPassing clouds.9 mph93%29.80 "HgN/A
3:50 AM45 °FPassing clouds.12 mph93%29.80 "HgN/A
2:50 AM43 °FPassing clouds.9 mph100%29.80 "HgN/A
2:20 AM45 °FPassing clouds.13 mph93%29.80 "HgN/A
1:50 AM45 °FLight rain. Fog.7 mph100%29.80 "Hg2 mi
1:20 AM43 °FLight rain. Passing clouds.8 mph100%29.80 "Hg4 mi
12:50 AM43 °FSprinkles. Passing clouds.8 mph100%29.80 "Hg4 mi
12:20 AM43 °FSprinkles. Passing clouds.10 mph100%29.83 "HgN/A
Weather by CustomWeather, © 2015

See weather overviewHow to use our weather pages